Weather History for Avoca, PA

Change the Weather History Date:

Friday, June 21, 2013

  Actual Average Record
Temperature  
Mean Temperature 70 °F 69 °F  
Max Temperature 82 °F 79 °F 96 °F (1953)
Min Temperature 57 °F 58 °F 45 °F (1968)
Degree Days  
Heating Degree Days 0 1  
Month to date heating degree days 21 48  
Since 1 June heating degree days 21 48  
Since 1 July heating degree days 5830 6249  
Cooling Degree Days 5 5  
Month to date cooling degree days 48 69  
Year to date cooling degree days 112 106  
Since 1 June cooling degree days 48 69  
Growing Degree Days 20 (Base 50)    
Moisture  
Dew Point 56 °F    
Average Humidity 65    
Maximum Humidity 86    
Minimum Humidity 43    
Precipitation  
Precipitation 0.00 in 0.13 in 1.97 in (1937)
Month to date precipitation 3.05 2.89  
Year to date precipitation 12.82 16.69  
Sea Level Pressure  
Sea Level Pressure 30.25 in    
Wind  
Wind Speed 4 mph (SW)    
Max Wind Speed 15 mph    
Max Gust Speed 18 mph    
Visibility 10 miles    
Events      
T = Trace of Precipitation, MM = Missing Value Source: NWS Daily Summary

Daily Weather History Graph

Daily Weather History Graph

Search for Another Location

Airport:

Trip Planner

Search our weather history database for the weather conditions in past years. The results will help you decide how hot, cold, wet, or windy it might be!

Date:

Astronomy

Jun. 21, 2013 Rise Set
Actual Time 5:29 AM EDT 8:39 PM EDT
Civil Twilight 4:55 AM EDT 9:13 PM EDT
Nautical Twilight 4:12 AM EDT 9:57 PM EDT
Astronomical Twilight 3:20 AM EDT 10:49 PM EDT
Moon 6:47 PM EDT (6/21) 3:44 AM EDT (6/21)
Length of Visible Light 16h 17m
Length of Day
15h 09m
Waxing Gibbous, 95% of the Moon is Illuminated
Jun 21
Waxing Gibbous
Jun 23
Full
Jun 30
Last Quarter
Jul 8
New
Jul 15
First Quarter

Hourly Weather History & Observations

Time (EDT) Temp. Heat Index Dew Point Humidity Pressure Visibility Wind Dir Wind Speed Gust Speed Precip Events Conditions
12:54 AM 66.0 °F - 55.0 °F 68% 30.24 in 10.0 mi South 4.6 mph - N/A   Clear
1:54 AM 64.0 °F - 54.0 °F 70% 30.25 in 10.0 mi Calm Calm - N/A   Clear
2:54 AM 63.0 °F - 54.0 °F 72% 30.24 in 10.0 mi Calm Calm - N/A   Clear
3:54 AM 61.0 °F - 54.0 °F 78% 30.24 in 10.0 mi Calm Calm - N/A   Clear
4:54 AM 57.9 °F - 54.0 °F 87% 30.26 in 10.0 mi Calm Calm - N/A   Clear
5:54 AM 57.0 °F - 54.0 °F 89% 30.27 in 9.0 mi Calm Calm - N/A   Clear
6:54 AM 61.0 °F - 55.0 °F 81% 30.28 in 10.0 mi Calm Calm - N/A   Clear
7:54 AM 66.9 °F - 55.9 °F 68% 30.27 in 10.0 mi NW 3.5 mph - N/A   Clear
8:54 AM 68.0 °F - 55.9 °F 65% 30.28 in 10.0 mi WSW 4.6 mph - N/A   Scattered Clouds
9:54 AM 72.0 °F - 55.9 °F 57% 30.28 in 10.0 mi SW 8.1 mph - N/A   Partly Cloudy
10:54 AM 73.9 °F - 57.0 °F 55% 30.29 in 10.0 mi West 8.1 mph - N/A   Mostly Cloudy
11:54 AM 77.0 °F - 57.9 °F 52% 30.29 in 10.0 mi SW 6.9 mph - N/A   Scattered Clouds
12:54 PM 78.1 °F - 59.0 °F 52% 30.26 in 10.0 mi WSW 6.9 mph - N/A   Clear
1:54 PM 80.1 °F 80.6 °F 57.9 °F 47% 30.25 in 10.0 mi WSW 9.2 mph - N/A   Partly Cloudy
2:54 PM 81.0 °F 81.0 °F 57.0 °F 44% 30.24 in 10.0 mi WSW 9.2 mph - N/A   Partly Cloudy
3:54 PM 82.0 °F 82.0 °F 57.9 °F 44% 30.23 in 10.0 mi WSW 8.1 mph - N/A   Partly Cloudy
4:54 PM 80.1 °F 80.6 °F 57.9 °F 47% 30.22 in 10.0 mi Variable 4.6 mph - N/A   Overcast
5:54 PM 79.0 °F - 57.9 °F 48% 30.22 in 10.0 mi South 5.8 mph - N/A   Mostly Cloudy
6:54 PM 79.0 °F - 57.9 °F 48% 30.22 in 10.0 mi SSW 6.9 mph - N/A   Scattered Clouds
7:54 PM 75.9 °F - 57.0 °F 52% 30.21 in 10.0 mi SSW 5.8 mph - N/A   Clear
8:54 PM 73.9 °F - 55.9 °F 53% 30.21 in 10.0 mi South 6.9 mph - N/A   Clear
9:54 PM 72.0 °F - 55.0 °F 55% 30.23 in 10.0 mi Calm Calm - N/A   Clear
10:54 PM 66.9 °F - 57.0 °F 70% 30.23 in 10.0 mi Calm Calm - N/A   Clear
11:54 PM 66.9 °F - 55.0 °F 66% 30.23 in 10.0 mi South 4.6 mph - N/A   Clear